Powrót do katalogu

ONEWEB-0307

AktywnyŁącznośćPO
NORAD 49189·PAYLOAD·🇬🇧 United Kingdom

Wystrzelony Sep 14, 2021 z Baikonur Cosmodrome

Loading…

Następne Przeloty (najbliższe 24 godziny)

TLE

ŚwieżeSource: CelesTrak SupGP

Epoka: Sep 14, 2026, 23:40 UTC

1 49189C 21083D   26257.98664769  .00003545  00000+0  97208-2 0  2573
2 49189  87.8914 302.3684 0001951 101.0104 323.6018 13.13462420    19

Śledź ONEWEB-0307 w czasie rzeczywistym z AllMySat

Download on the App Store